Time,TemperatureF,DewpointF,PressureIn,WindDirection,WindDirectionDegrees,WindSpeedMPH,WindSpeedGustMPH,Humidity,HourlyPrecipIn,Conditions,Clouds,dailyrainin,SoftwareType,DateUTC
2013-05-16 00:10:00,68.6,64.6,29.89,West,268,0.0,0.0,87,0.00,,,0.00,Wunderground v.1.15,2013-05-15 21:10:00,
2013-05-16 00:35:00,68.7,64.7,29.88,West,268,0.0,0.0,87,0.00,,,0.00,Wunderground v.1.15,2013-05-15 21:35:00,
2013-05-16 00:50:00,68.6,64.6,29.89,West,268,0.0,0.0,87,0.00,,,0.00,Wunderground v.1.15,2013-05-15 21:50:00,
2013-05-16 01:05:00,68.4,64.0,29.88,West,268,0.0,0.0,86,0.00,,,0.00,Wunderground v.1.15,2013-05-15 22:05:00,
2013-05-16 01:20:00,68.3,63.9,29.88,West,268,0.0,0.0,86,0.00,,,0.00,Wunderground v.1.15,2013-05-15 22:20:00,
2013-05-16 01:35:00,68.1,63.8,29.87,West,268,0.0,0.0,86,0.00,,,0.00,Wunderground v.1.15,2013-05-15 22:35:00,
2013-05-16 01:55:00,68.1,63.8,29.87,West,268,0.0,0.0,86,0.00,,,0.00,Wunderground v.1.15,2013-05-15 22:55:00,
2013-05-16 02:05:00,68.2,63.9,29.86,West,268,0.0,3.0,86,0.00,,,0.00,Wunderground v.1.15,2013-05-15 23:05:00,
2013-05-16 02:35:00,68.2,64.2,29.87,West,268,0.0,0.0,87,0.00,,,0.00,Wunderground v.1.15,2013-05-15 23:35:00,
2013-05-16 02:55:00,68.3,64.3,29.86,West,268,0.0,0.0,87,0.00,,,0.00,Wunderground v.1.15,2013-05-15 23:55:00,
2013-05-16 03:05:00,68.2,64.2,29.86,West,268,0.0,0.0,87,0.00,,,0.00,Wunderground v.1.15,2013-05-16 00:05:00,
2013-05-16 03:10:00,68.1,64.1,29.86,West,268,0.0,0.0,87,0.00,,,0.00,Wunderground v.1.15,2013-05-16 00:10:00,
2013-05-16 03:20:00,68.0,64.0,29.86,West,268,0.0,0.0,87,0.00,,,0.00,Wunderground v.1.15,2013-05-16 00:20:00,
2013-05-16 03:35:00,67.8,63.8,29.85,West,268,0.0,0.0,87,0.00,,,0.00,Wunderground v.1.15,2013-05-16 00:35:00,
2013-05-16 03:40:00,67.8,64.1,29.86,West,268,0.0,0.0,88,0.00,,,0.00,Wunderground v.1.15,2013-05-16 00:40:00,
2013-05-16 03:50:00,67.8,64.1,29.85,West,268,0.0,0.0,88,0.00,,,0.00,Wunderground v.1.15,2013-05-16 00:50:00,
2013-05-16 04:05:00,67.6,63.9,29.85,West,268,0.0,2.0,88,0.00,,,0.00,Wunderground v.1.15,2013-05-16 01:05:00,
2013-05-16 04:20:00,67.4,63.7,29.85,West,268,0.0,0.0,88,0.00,,,0.00,Wunderground v.1.15,2013-05-16 01:20:00,
2013-05-16 04:25:00,67.4,63.7,29.85,West,268,0.0,0.0,88,0.00,,,0.00,Wunderground v.1.15,2013-05-16 01:25:00,
2013-05-16 04:35:00,67.3,63.6,29.85,West,268,0.0,0.0,88,0.00,,,0.00,Wunderground v.1.15,2013-05-16 01:35:00,
2013-05-16 04:55:00,66.8,63.1,29.85,West,268,1.0,1.0,88,0.00,,,0.00,Wunderground v.1.15,2013-05-16 01:55:00,
2013-05-16 05:10:00,66.2,62.2,29.85,West,268,0.0,0.0,87,0.00,,,0.00,Wunderground v.1.15,2013-05-16 02:10:00,
2013-05-16 05:20:00,66.1,61.8,29.85,West,268,0.0,0.0,86,0.00,,,0.00,Wunderground v.1.15,2013-05-16 02:20:00,
2013-05-16 05:31:00,66.0,61.7,29.85,West,267,0.0,0.0,86,0.00,,,0.00,Wunderground v.1.15,2013-05-16 02:31:00,
2013-05-16 05:40:00,66.0,61.4,29.85,SE,143,0.0,0.0,85,0.00,,,0.00,Wunderground v.1.15,2013-05-16 02:40:00,
2013-05-16 05:50:00,66.0,61.4,29.84,SE,142,0.0,3.0,85,0.00,,,0.00,Wunderground v.1.15,2013-05-16 02:50:00,
2013-05-16 06:05:00,66.0,61.0,29.85,SE,143,0.0,3.0,84,0.00,,,0.00,Wunderground v.1.15,2013-05-16 03:05:00,
2013-05-16 06:20:00,66.3,61.3,29.85,NE,36,0.0,0.0,84,0.00,,,0.00,Wunderground v.1.15,2013-05-16 03:20:00,
2013-05-16 06:40:00,66.6,61.6,29.86,NE,36,0.0,0.0,84,0.00,,,0.00,Wunderground v.1.15,2013-05-16 03:40:00,
2013-05-16 06:55:00,66.6,61.9,29.87,NE,36,0.0,0.0,85,0.00,,,0.00,Wunderground v.1.15,2013-05-16 03:55:00,
2013-05-16 07:05:00,66.5,61.8,29.87,NE,36,0.0,0.0,85,0.00,,,0.00,Wunderground v.1.15,2013-05-16 04:05:00,
2013-05-16 07:10:00,66.5,61.8,29.88,NE,36,0.0,0.0,85,0.00,,,0.00,Wunderground v.1.15,2013-05-16 04:10:00,
2013-05-16 07:20:00,66.5,61.8,29.88,NE,36,0.0,0.0,85,0.00,,,0.00,Wunderground v.1.15,2013-05-16 04:20:00,
2013-05-16 07:35:00,66.8,62.1,29.88,NE,36,0.0,0.0,85,0.00,,,0.00,Wunderground v.1.15,2013-05-16 04:35:00,
2013-05-16 07:50:00,67.0,62.3,29.89,NE,36,0.0,0.0,85,0.00,,,0.00,Wunderground v.1.15,2013-05-16 04:50:00,
2013-05-16 08:05:00,67.2,62.5,29.89,ENE,60,0.0,0.0,85,0.00,,,0.00,Wunderground v.1.15,2013-05-16 05:05:00,
2013-05-16 08:20:00,67.0,61.7,29.89,South,180,1.0,1.0,83,0.00,,,0.00,Wunderground v.1.15,2013-05-16 05:20:00,
2013-05-16 08:35:00,67.3,61.6,29.89,SE,146,2.0,3.0,82,0.00,,,0.00,Wunderground v.1.15,2013-05-16 05:35:00,
2013-05-16 08:50:00,67.6,61.6,29.88,SSE,160,1.0,4.0,81,0.00,,,0.00,Wunderground v.1.15,2013-05-16 05:50:00,
2013-05-16 09:05:00,68.0,61.9,29.88,SSE,159,1.0,3.0,81,0.00,,,0.00,Wunderground v.1.15,2013-05-16 06:05:00,
2013-05-16 09:20:00,68.1,61.7,29.89,SE,134,1.0,1.0,80,0.00,,,0.00,Wunderground v.1.15,2013-05-16 06:20:00,
2013-05-16 09:25:00,68.2,61.8,29.89,SE,135,0.0,1.0,80,0.00,,,0.00,Wunderground v.1.15,2013-05-16 06:25:00,
2013-05-16 09:35:00,68.9,62.5,29.88,SE,135,0.0,3.0,80,0.00,,,0.00,Wunderground v.1.15,2013-05-16 06:35:00,
2013-05-16 09:50:00,69.4,62.6,29.89,South,180,1.0,1.0,79,0.00,,,0.00,Wunderground v.1.15,2013-05-16 06:50:00,
2013-05-16 10:05:00,70.1,62.9,29.88,South,181,0.0,5.0,78,0.00,,,0.00,Wunderground v.1.15,2013-05-16 07:05:00,
2013-05-16 10:10:00,70.2,63.0,29.88,South,181,1.0,5.0,78,0.00,,,0.00,Wunderground v.1.15,2013-05-16 07:10:00,
2013-05-16 10:20:00,70.4,62.8,29.88,South,181,0.0,5.0,77,0.00,,,0.00,Wunderground v.1.15,2013-05-16 07:20:00,
2013-05-16 10:35:00,70.7,63.5,29.88,SSW,192,0.0,5.0,78,0.00,,,0.00,Wunderground v.1.15,2013-05-16 07:35:00,
2013-05-16 10:50:00,70.7,63.5,29.90,NW,313,1.0,5.0,78,0.00,,,0.00,Wunderground v.1.15,2013-05-16 07:50:00,
2013-05-16 11:05:00,70.9,64.4,29.90,NNW,336,2.0,2.0,80,0.00,,,0.00,Wunderground v.1.15,2013-05-16 08:05:00,
2013-05-16 11:20:00,71.0,64.5,29.91,NW,318,1.0,1.0,80,0.00,,,0.00,Wunderground v.1.15,2013-05-16 08:20:00,
2013-05-16 11:25:00,70.9,64.1,29.91,NW,324,2.0,2.0,79,0.00,,,0.00,Wunderground v.1.15,2013-05-16 08:25:00,
2013-05-16 11:35:00,70.6,63.8,29.91,NW,312,3.0,5.0,79,0.00,,,0.00,Wunderground v.1.15,2013-05-16 08:35:00,
2013-05-16 11:40:00,70.5,64.0,29.91,WNW,296,3.0,5.0,80,0.00,,,0.00,Wunderground v.1.15,2013-05-16 08:40:00,
2013-05-16 11:50:00,70.6,64.8,29.91,WNW,284,2.0,2.0,82,0.00,,,0.00,Wunderground v.1.15,2013-05-16 08:50:00,
2013-05-16 12:05:00,70.6,65.5,29.90,WNW,288,3.0,6.0,84,0.00,,,0.00,Wunderground v.1.15,2013-05-16 09:05:00,
2013-05-16 12:20:00,70.9,65.8,29.90,West,281,2.0,3.0,84,0.00,,,0.00,Wunderground v.1.15,2013-05-16 09:20:00,
2013-05-16 12:25:00,70.7,65.6,29.91,West,272,2.0,3.0,84,0.00,,,0.00,Wunderground v.1.15,2013-05-16 09:25:00,
2013-05-16 12:35:00,71.6,66.8,29.91,WNW,288,3.0,3.0,85,0.00,,,0.00,Wunderground v.1.15,2013-05-16 09:35:00,
2013-05-16 12:50:00,72.0,66.9,29.90,West,267,2.0,2.0,84,0.00,,,0.00,Wunderground v.1.15,2013-05-16 09:50:00,
2013-05-16 13:05:00,73.1,67.3,29.90,WSW,257,2.0,2.0,82,0.00,,,0.00,Wunderground v.1.15,2013-05-16 10:05:00,
2013-05-16 13:20:00,72.7,66.9,29.90,West,260,2.0,4.0,82,0.00,,,0.00,Wunderground v.1.15,2013-05-16 10:20:00,
2013-05-16 13:35:00,74.1,68.3,29.90,West,261,2.0,2.0,82,0.00,,,0.00,Wunderground v.1.15,2013-05-16 10:35:00,
2013-05-16 13:50:00,73.9,67.3,29.90,West,276,3.0,7.0,80,0.00,,,0.00,Wunderground v.1.15,2013-05-16 10:50:00,
2013-05-16 13:55:00,73.9,67.7,29.89,West,269,3.0,7.0,81,0.00,,,0.00,Wunderground v.1.15,2013-05-16 10:55:00,
2013-05-16 14:05:00,74.1,67.9,29.89,West,281,2.0,4.0,81,0.00,,,0.00,Wunderground v.1.15,2013-05-16 11:05:00,
2013-05-16 14:20:00,72.7,67.2,29.90,WNW,288,4.0,4.0,83,0.00,,,0.00,Wunderground v.1.15,2013-05-16 11:20:00,
2013-05-16 14:35:00,72.2,66.4,29.91,NW,304,4.0,4.0,82,0.00,,,0.00,Wunderground v.1.15,2013-05-16 11:35:00,
2013-05-16 14:50:00,71.8,67.0,29.90,WNW,293,6.0,6.0,85,0.00,,,0.00,Wunderground v.1.15,2013-05-16 11:50:00,
2013-05-16 15:05:00,72.7,68.9,29.89,West,265,6.0,8.0,88,0.00,,,0.00,Wunderground v.1.15,2013-05-16 12:05:00,
2013-05-16 15:20:00,72.9,68.8,29.89,West,267,6.0,10.0,87,0.00,,,0.00,Wunderground v.1.15,2013-05-16 12:20:00,
2013-05-16 15:35:00,72.8,68.4,29.89,WSW,240,5.0,5.0,86,0.00,,,0.00,Wunderground v.1.15,2013-05-16 12:35:00,
2013-05-16 15:40:00,72.8,68.0,29.89,SW,233,4.0,5.0,85,0.00,,,0.00,Wunderground v.1.15,2013-05-16 12:40:00,
2013-05-16 15:50:00,72.8,67.7,29.89,WSW,256,3.0,10.0,84,0.00,,,0.00,Wunderground v.1.15,2013-05-16 12:50:00,
2013-05-16 16:05:00,72.1,67.0,29.88,West,259,9.0,9.0,84,0.00,,,0.00,Wunderground v.1.15,2013-05-16 13:05:00,
2013-05-16 16:10:00,72.1,67.3,29.88,West,264,8.0,9.0,85,0.00,,,0.00,Wunderground v.1.15,2013-05-16 13:10:00,
2013-05-16 16:20:00,72.1,68.0,29.88,WSW,252,6.0,6.0,87,0.00,,,0.00,Wunderground v.1.15,2013-05-16 13:20:00,
2013-05-16 16:35:00,71.6,68.2,29.88,WSW,245,6.0,6.0,89,0.00,,,0.00,Wunderground v.1.15,2013-05-16 13:35:00,
2013-05-16 16:50:00,70.5,67.4,29.88,SW,225,8.0,8.0,90,0.00,,,0.00,Wunderground v.1.15,2013-05-16 13:50:00,
2013-05-16 17:05:00,69.5,65.8,29.88,WSW,238,7.0,9.0,88,0.00,,,0.00,Wunderground v.1.15,2013-05-16 14:05:00,
2013-05-16 17:20:00,69.5,65.5,29.88,WSW,246,7.0,10.0,87,0.00,,,0.00,Wunderground v.1.15,2013-05-16 14:20:00,
2013-05-16 17:25:00,69.7,65.7,29.88,West,259,5.0,10.0,87,0.00,,,0.00,Wunderground v.1.15,2013-05-16 14:25:00,
2013-05-16 17:35:00,69.7,65.3,29.88,WSW,237,5.0,5.0,86,0.00,,,0.00,Wunderground v.1.15,2013-05-16 14:35:00,
2013-05-16 17:50:00,70.0,65.3,29.87,West,261,3.0,3.0,85,0.00,,,0.00,Wunderground v.1.15,2013-05-16 14:50:00,
2013-05-16 18:05:00,70.3,65.6,29.87,SW,217,1.0,1.0,85,0.00,,,0.00,Wunderground v.1.15,2013-05-16 15:05:00,
2013-05-16 18:10:00,70.2,65.1,29.88,WSW,256,2.0,5.0,84,0.00,,,0.00,Wunderground v.1.15,2013-05-16 15:10:00,
2013-05-16 18:20:00,69.9,64.8,29.87,WSW,242,6.0,9.0,84,0.00,,,0.00,Wunderground v.1.15,2013-05-16 15:20:00,
2013-05-16 18:35:00,69.9,64.5,29.85,WSW,248,5.0,5.0,83,0.00,,,0.00,Wunderground v.1.15,2013-05-16 15:35:00,
2013-05-16 18:40:00,70.0,64.6,29.87,West,271,4.0,10.0,83,0.00,,,0.00,Wunderground v.1.15,2013-05-16 15:40:00,
2013-05-16 18:50:00,69.9,64.5,29.85,SW,234,11.0,17.0,83,0.00,,,0.00,Wunderground v.1.15,2013-05-16 15:50:00,
2013-05-16 18:55:00,69.9,64.2,29.85,WSW,247,12.0,17.0,82,0.00,,,0.00,Wunderground v.1.15,2013-05-16 15:55:00,
2013-05-16 19:01:00,69.9,64.5,29.87,WSW,237,11.0,11.0,83,0.00,,,0.00,Wunderground v.1.15,2013-05-16 16:01:00,
2013-05-16 19:10:00,69.9,64.5,29.86,WSW,249,10.0,13.0,83,0.00,,,0.00,Wunderground v.1.15,2013-05-16 16:10:00,
2013-05-16 19:20:00,69.7,64.6,29.86,WSW,240,10.0,13.0,84,0.00,,,0.00,Wunderground v.1.15,2013-05-16 16:20:00,
2013-05-16 19:35:00,69.5,64.5,29.87,West,266,6.0,14.0,84,0.00,,,0.00,Wunderground v.1.15,2013-05-16 16:35:00,
2013-05-16 19:50:00,69.5,64.5,29.88,WSW,240,7.0,7.0,84,0.00,,,0.00,Wunderground v.1.15,2013-05-16 16:50:00,
2013-05-16 19:55:00,69.5,64.8,29.88,West,272,7.0,12.0,85,0.00,,,0.00,Wunderground v.1.15,2013-05-16 16:55:00,
2013-05-16 20:05:00,69.4,64.7,29.88,West,263,10.0,10.0,85,0.00,,,0.00,Wunderground v.1.15,2013-05-16 17:05:00,
2013-05-16 20:20:00,69.2,64.5,29.89,West,263,10.0,10.0,85,0.00,,,0.00,Wunderground v.1.15,2013-05-16 17:20:00,
2013-05-16 20:35:00,69.3,64.9,29.91,WSW,253,7.0,7.0,86,0.00,,,0.00,Wunderground v.1.15,2013-05-16 17:35:00,
2013-05-16 20:46:00,69.2,64.8,29.91,West,263,4.0,4.0,86,0.00,,,0.00,Wunderground v.1.15,2013-05-16 17:46:00,
2013-05-16 20:55:00,69.3,64.9,29.91,WSW,239,3.0,4.0,86,0.00,,,0.00,Wunderground v.1.15,2013-05-16 17:55:00,
2013-05-16 21:05:00,69.1,64.4,29.91,West,276,4.0,4.0,85,0.00,,,0.00,Wunderground v.1.15,2013-05-16 18:05:00,
2013-05-16 21:20:00,69.2,64.8,29.91,SW,234,2.0,3.0,86,0.00,,,0.00,Wunderground v.1.15,2013-05-16 18:20:00,
2013-05-16 21:35:00,69.2,64.8,29.92,West,275,2.0,3.0,86,0.00,,,0.00,Wunderground v.1.15,2013-05-16 18:35:00,
2013-05-16 21:50:00,69.1,64.7,29.89,SSW,206,3.0,7.0,86,0.00,,,0.00,Wunderground v.1.15,2013-05-16 18:50:00,
2013-05-16 22:05:00,68.7,63.7,29.87,ESE,108,8.0,8.0,84,0.00,,,0.00,Wunderground v.1.15,2013-05-16 19:05:00,
2013-05-16 22:20:00,68.7,62.6,29.87,SW,223,4.0,4.0,81,0.00,,,0.00,Wunderground v.1.15,2013-05-16 19:20:00,
2013-05-16 22:25:00,68.9,62.5,29.88,WSW,253,5.0,5.0,80,0.00,,,0.00,Wunderground v.1.15,2013-05-16 19:25:00,
2013-05-16 22:35:00,69.5,63.8,29.89,WSW,250,7.0,13.0,82,0.00,,,0.00,Wunderground v.1.15,2013-05-16 19:35:00,
2013-05-16 22:40:00,69.5,63.8,29.89,WSW,252,9.0,14.0,82,0.00,,,0.00,Wunderground v.1.15,2013-05-16 19:40:00,
2013-05-16 22:50:00,69.4,64.0,29.90,West,275,10.0,11.0,83,0.00,,,0.00,Wunderground v.1.15,2013-05-16 19:50:00,
2013-05-16 23:05:00,69.4,64.7,29.90,West,272,8.0,8.0,85,0.00,,,0.00,Wunderground v.1.15,2013-05-16 20:05:00,
2013-05-16 23:20:00,69.2,65.2,29.90,West,280,7.0,7.0,87,0.00,,,0.00,Wunderground v.1.15,2013-05-16 20:20:00,
2013-05-16 23:35:00,69.2,65.8,29.91,WSW,237,4.0,4.0,89,0.00,,,0.00,Wunderground v.1.15,2013-05-16 20:35:00,
2013-05-16 23:50:00,68.6,65.5,29.91,SW,233,7.0,7.0,90,0.00,,,0.00,Wunderground v.1.15,2013-05-16 20:50:00,